This demonstration page uses our WeatherBlox Daily Observations layout. Learn more.

Left ArrowRight Arrow

44.8408, -93.29828

Hourly Observations for September 6, 2019

Temp ( °F °C ) Dew Point ( °F °C ) Humidity (%) Winds ( mph kmh ) Pressure ( in mb ) Visibility ( mi km ) Precip ( " mm )
12:13 am 00:13 Cloudy 69 20.6 60 15.6 73 73 NW 18 30 29.92 1013 10 16 0.00 0.00
12:51 am 00:51 Cloudy 68 20 61 16 78 78 NNW 18 30 29.93 1013 10 16 0.00 0.00
12:53 am 00:53 Cloudy 68 20 60 15.6 76 76 NW 16 26 29.94 1014 10 16 0.00 0.00
1:53 am 01:53 Cloudy 68 20 59 15 73 73 NW 16 26 29.96 1014 10 16 0.00 0.00
2:53 am 02:53 Cloudy 67 19.4 58 14.4 73 73 NNW 17 28 29.97 1015 10 16 0.00 0.00
3:53 am 03:53 Cloudy 66 18.9 58 14.4 75 75 NNW 10 17 29.98 1015 10 16 0.00 0.00
4:53 am 04:53 Cloudy 66 18.9 56 13.3 70 70 N 13 20 30.00 1016 10 16 0.00 0.00
5:53 am 05:53 Cloudy 65 18.3 56 13.3 73 73 N 13 20 30.02 1017 10 16 0.00 0.00
6:53 am 06:53 Cloudy 65 18.3 55 12.8 70 70 N 15 24 30.04 1017 10 16 0.00 0.00
7:53 am 07:53 Cloudy 65 18.3 55 12.8 70 70 N 12 19 30.07 1018 10 16 0.00 0.00
8:53 am 08:53 Cloudy 65 18.3 56 13.3 73 73 NNW 14 22 30.09 1019 10 16 0.00 0.00
9:32 am 09:32 Partly Cloudy 68 20 55 12.8 63 63 NNE 13 20 30.09 1019 10 16 0.00 0.00
9:53 am 09:53 Partly Cloudy 68 20 55 12.8 63 63 NE 15 24 30.10 1019 10 16 0.00 0.00
10:53 am 10:53 Partly Cloudy 69 20.6 56 13.3 63 63 N 9 15 30.11 1020 10 16 0.00 0.00
11:53 am 11:53 Partly Cloudy 72 22.2 57 13.9 59 59 N 7 11 30.11 1020 10 16 0.00 0.00
12:53 pm 12:53 Partly Cloudy 73 22.8 57 13.9 57 57 N 8 13 30.11 1020 10 16 0.00 0.00
1:53 pm 13:53 Mostly Cloudy 75 23.9 57 13.9 54 54 VRB 7 11 30.10 1019 10 16 0.00 0.00
2:53 pm 14:53 Partly Cloudy 75 23.9 58 14.4 55 55 NW 9 15 30.09 1019 10 16 0.00 0.00
3:53 pm 15:53 Partly Cloudy 77 25 58 14.4 52 52 NW 10 17 30.07 1018 10 16 0.00 0.00
4:53 pm 16:53 Partly Cloudy 75 23.9 58 14.4 55 55 NW 9 15 30.07 1018 10 16 0.00 0.00
5:53 pm 17:53 Partly Cloudy 76 24.4 58 14.4 54 54 WNW 8 13 30.06 1018 10 16 0.00 0.00
6:53 pm 18:53 Partly Cloudy 75 23.9 57 13.9 54 54 WSW 8 13 30.05 1018 10 16 0.00 0.00
7:53 pm 19:53 Partly Cloudy 74 23.3 58 14.4 57 57 SW 6 9 30.05 1018 10 16 0.00 0.00
8:53 pm 20:53 Mostly Cloudy 73 22.8 59 15 62 62 WSW 8 13 30.05 1018 10 16 0.00 0.00
9:53 pm 21:53 Partly Cloudy 71 21.7 60 15.6 68 68 WNW 9 15 30.06 1018 10 16 0.00 0.00
10:53 pm 22:53 Partly Cloudy 69 20.6 55 12.8 61 61 NNW 9 15 30.07 1018 10 16 0.00 0.00
11:53 pm 23:53 Mostly Clear 66 18.9 54 12.2 65 65 N 10 17 30.08 1019 10 16 0.00 0.00

Powered by AerisWeather